Theta_e
312 312 312 311 312 311 312 312 311 310 308 307 308 308 307 307 307 306 305 305 304 303 303 302 300 299 298 298 298 297 295 294 293 293 292 292 292 293 293 293 294 294 294 294 294 294 294 294 294 293 292 291 290 290 289 289 288 288 287 287 287 286 286 285 286 287 288 287 287 286 286 285 285 286 287 287 286 286 286 286 287 287 287 288 288
311 311 311 311 311 311 310 311 310 309 308 307 307 307 307 307 307 306 305 305 305 304 303 302 301 299 298 297 297 297 296 294 293 293 292 292 292 292 292 293 293 293 293 293 294 294 294 294 293 292 292 291 290 289 289 288 288 288 287 287 286 286 286 285 285 286 288 288 287 287 286 285 285 285 286 286 286 286 286 287 287 287 287 287 287
310 310 310 310 310 310 309 309 309 308 308 307 307 307 307 307 307 306 306 305 304 304 303 302 301 299 298 297 297 296 296 295 294 293 292 292 292 292 292 293 293 293 293 293 293 293 293 293 293 292 291 290 290 289 289 288 288 287 287 286 286 286 286 285 285 286 287 287 287 287 287 286 285 285 285 285 285 285 286 286 287 287 287 287 287
310 309 309 309 309 309 308 308 308 308 308 308 307 307 307 307 307 306 306 305 304 304 303 302 300 299 298 297 297 296 296 295 294 293 293 292 292 292 292 292 292 293 293 293 293 293 293 293 292 292 291 290 289 289 288 288 287 287 287 286 286 286 285 285 285 286 286 287 287 287 287 286 285 285 285 285 285 285 286 286 286 286 287 286 286
308 308 308 307 308 308 308 308 308 307 307 307 308 307 307 306 306 306 305 305 305 304 303 302 300 299 298 298 297 296 296 295 294 293 293 292 292 291 292 292 292 292 292 292 292 292 292 292 292 291 291 290 289 289 288 287 287 287 286 286 285 285 285 285 286 286 286 287 287 287 286 286 285 284 285 285 285 285 286 286 286 286 286 286 285
308 308 307 307 307 307 308 308 308 307 307 307 307 306 306 306 305 305 305 305 304 303 303 302 301 300 299 298 297 296 296 295 294 294 293 292 292 291 291 291 291 291 292 292 292 292 292 292 291 291 290 289 289 288 288 287 287 287 286 286 285 285 286 286 286 286 286 286 286 286 286 285 285 285 284 284 284 285 285 286 285 285 285 284 284
308 308 308 307 306 307 307 308 308 307 307 307 306 305 305 305 305 305 304 304 303 302 302 301 301 301 300 299 298 297 296 295 294 293 293 292 292 291 291 291 291 291 291 291 291 291 291 291 291 290 290 289 288 288 287 287 287 287 286 286 286 286 286 286 286 286 286 286 286 286 285 285 285 284 283 283 284 284 284 284 284 284 283 283 282
308 308 308 307 307 308 308 308 308 307 306 305 305 304 304 304 305 305 304 302 302 301 301 300 300 299 299 298 298 297 296 295 294 293 293 292 292 291 291 291 290 290 290 290 290 290 291 290 290 290 289 288 288 287 287 287 287 286 286 286 286 286 286 286 286 286 286 285 285 285 285 285 285 285 284 283 282 282 282 282 282 282 282 281 280
306 307 307 307 308 308 308 307 307 306 304 304 304 303 303 304 305 304 304 303 301 300 299 298 298 298 297 296 296 295 295 294 294 293 293 292 291 291 290 290 290 290 290 290 290 290 290 290 290 289 289 288 288 287 287 287 286 286 285 285 285 285 285 286 286 285 285 285 285 285 284 285 285 285 284 283 281 280 281 281 281 281 282 281 280
306 306 307 307 307 307 306 305 305 304 303 303 304 303 302 303 304 304 304 302 300 299 298 297 297 296 296 295 295 294 294 294 294 293 293 292 292 291 290 290 290 290 290 289 290 290 290 290 289 289 288 288 287 287 286 286 286 285 285 285 285 285 286 286 285 285 285 284 284 284 284 284 284 284 283 282 281 280 280 279 279 280 280 280 280
307 306 306 307 307 306 305 304 303 303 303 302 302 302 302 302 302 303 302 301 300 298 297 297 296 295 295 295 295 294 294 294 293 293 292 292 291 290 290 290 289 289 289 289 289 289 289 289 289 288 288 287 287 286 286 285 285 285 285 285 285 285 285 285 285 284 284 283 283 283 283 283 283 283 283 282 280 279 278 277 277 278 277 278 278
305 306 306 305 305 304 304 304 303 302 302 302 301 301 301 300 301 301 301 301 300 298 297 296 296 295 295 294 294 294 294 294 293 293 292 292 291 290 289 289 289 289 289 289 289 289 289 289 288 288 287 287 286 286 285 285 284 284 285 285 284 284 284 284 284 283 283 282 282 282 282 282 282 282 281 280 279 278 278 277 276 277 277 277 277
302 303 304 304 303 302 302 302 302 302 302 301 301 300 299 300 300 300 300 300 299 298 297 296 295 295 294 294 294 293 293 293 293 292 292 291 290 290 289 288 289 288 288 288 288 288 288 288 287 287 287 286 286 285 285 284 284 284 284 284 284 283 283 283 282 282 282 282 282 281 281 281 280 281 280 278 277 277 277 277 277 277 277 277 277
300 300 301 301 301 300 300 301 301 301 301 300 299 298 298 299 299 299 299 298 298 297 297 296 295 294 294 293 293 293 292 292 292 292 291 291 290 289 288 288 288 288 287 288 288 288 288 287 287 286 286 286 285 285 284 284 284 283 283 283 283 283 283 282 282 282 282 281 281 281 280 279 279 279 279 277 276 277 276 277 277 277 277 277 277
299 299 299 299 299 298 298 298 298 298 298 298 298 298 297 297 298 298 297 297 297 297 296 295 294 294 293 292 292 292 292 292 291 291 291 290 289 289 288 287 287 287 287 287 287 287 287 286 286 286 286 285 285 284 284 283 283 283 283 283 283 283 282 282 282 282 282 282 281 280 279 278 278 278 277 277 276 277 277 277 277 277 277 276 277
299 298 298 299 299 298 297 296 296 296 296 296 296 296 296 296 296 296 296 295 295 294 294 294 293 293 292 292 291 291 291 291 290 290 290 289 289 288 287 287 286 286 286 286 286 286 286 286 286 286 285 285 284 284 284 283 283 282 283 283 283 283 282 282 282 281 281 281 280 279 279 278 278 278 277 277 277 276 276 277 277 277 276 276 277
299 298 298 298 298 298 298 297 296 295 294 294 295 295 295 295 295 294 294 294 294 293 293 293 292 292 292 291 291 291 291 290 290 290 289 289 288 288 287 286 286 286 286 286 286 286 285 285 286 285 285 285 284 284 284 283 282 282 283 283 282 282 282 282 281 281 281 280 280 279 279 279 279 278 278 277 277 276 276 276 277 277 276 275 276
297 298 298 298 298 298 298 298 297 296 294 293 293 293 293 293 293 293 293 293 293 293 292 292 291 291 291 291 291 291 291 290 290 290 289 288 288 287 286 286 286 285 286 286 285 285 285 285 285 285 285 285 285 284 283 282 282 283 283 282 282 282 282 281 281 281 281 280 280 280 280 279 279 279 278 278 277 277 276 276 277 276 275 275 275
295 296 297 297 298 298 298 298 298 297 296 295 293 292 292 292 292 292 292 292 292 292 291 291 291 291 290 290 290 290 290 290 289 289 288 288 287 287 286 285 285 285 285 285 285 285 285 285 285 284 285 285 284 283 282 282 282 282 282 282 282 282 282 281 281 281 280 280 280 280 280 279 279 278 278 278 277 277 276 276 276 275 275 275 274
292 294 295 296 297 297 298 298 298 297 297 296 294 293 292 291 291 291 291 290 290 290 290 290 290 290 290 289 289 289 289 289 289 288 287 287 286 286 285 285 285 285 285 285 285 285 285 285 285 285 285 285 284 283 282 282 282 282 282 282 282 282 281 280 280 280 280 280 279 279 279 279 278 278 278 277 277 277 276 276 276 276 275 274 273
291 292 293 294 295 296 297 297 297 297 297 297 296 294 292 291 290 290 290 289 289 289 289 289 289 289 289 288 288 288 288 288 288 288 287 286 285 285 285 285 285 285 285 285 285 285 285 285 285 285 285 284 283 283 282 282 282 282 282 282 282 281 280 279 280 279 279 279 278 278 278 278 278 277 277 277 277 276 276 276 276 276 274 272 272
290 291 292 292 293 294 295 296 297 297 297 297 297 296 294 292 290 289 289 289 289 288 288 288 288 288 288 288 288 287 287 287 287 286 286 285 284 284 284 285 285 285 285 285 285 285 285 285 285 285 284 283 282 282 282 282 281 282 282 281 281 279 279 279 279 279 278 278 278 278 277 277 277 277 277 277 277 277 277 276 276 275 273 272 271
289 290 290 291 292 293 293 294 295 296 297 297 296 296 296 294 292 290 289 288 288 288 288 287 287 287 287 287 287 287 286 286 285 284 284 283 283 283 283 284 284 284 285 285 285 285 285 285 284 283 282 281 281 282 281 281 281 281 281 280 279 279 279 279 278 277 277 277 277 277 277 276 276 276 276 276 276 276 276 276 275 275 274 274 273
289 289 290 290 291 292 292 293 293 294 295 296 296 296 296 296 294 292 290 288 287 287 287 287 286 286 286 286 286 286 286 286 285 283 282 283 283 283 283 283 283 284 284 284 284 284 284 284 283 281 280 280 281 281 281 281 281 281 280 279 279 279 278 278 277 277 277 276 276 276 276 276 276 276 276 276 276 276 276 275 275 274 274 274 274
288 289 289 289 290 291 292 292 293 293 294 295 296 296 296 295 295 294 292 290 288 287 287 287 287 286 286 286 286 286 286 285 284 283 282 282 283 283 282 282 282 283 283 282 282 282 282 282 281 280 280 280 280 281 281 280 280 280 279 279 278 278 277 277 277 276 276 276 276 276 276 276 276 276 276 275 275 275 276 275 275 274 274 274 274
287 287 288 289 289 290 291 293 293 293 293 294 294 295 295 295 295 295 294 292 291 289 288 287 287 286 286 286 286 286 285 284 283 282 281 281 282 282 282 282 282 282 282 281 281 281 280 280 279 279 280 281 281 281 280 280 279 279 279 278 278 277 277 276 276 276 275 275 275 276 276 276 275 275 275 275 275 275 275 275 275 274 273 272 272
286 286 287 288 288 289 290 292 294 294 294 294 294 294 294 294 294 294 294 294 293 291 290 289 288 287 287 287 286 286 285 284 283 282 281 281 281 282 281 281 282 281 281 280 280 280 280 279 280 280 281 281 280 280 279 279 279 279 278 278 277 277 276 276 275 275 275 275 275 275 275 275 275 275 275 275 275 275 275 274 274 274 273 271 270
286 286 286 287 288 288 289 291 293 294 294 294 294 294 293 293 294 294 295 295 294 294 292 291 290 290 288 287 286 285 284 284 284 283 282 281 281 281 281 281 281 281 281 280 280 281 281 280 280 281 281 280 280 279 279 279 278 278 278 277 276 276 275 275 275 275 275 275 275 275 275 275 274 274 274 274 274 275 274 273 273 272 272 270 269
285 286 286 286 287 288 288 289 291 292 293 294 294 293 293 293 293 293 293 293 293 293 292 292 291 290 289 288 287 286 285 286 285 284 282 282 281 281 281 281 281 282 282 283 283 282 281 280 280 280 280 280 279 279 278 278 278 277 277 276 276 275 275 274 275 275 275 275 275 275 275 274 274 274 274 274 274 274 274 273 272 272 271 270 270
284 285 286 286 286 287 287 287 288 289 290 292 292 292 292 291 291 291 291 290 290 290 290 290 289 288 288 287 287 287 287 287 286 284 282 281 280 281 281 281 281 282 283 284 283 282 281 280 280 280 280 280 279 278 278 278 277 277 276 276 275 275 274 274 275 275 275 275 274 274 274 274 273 273 273 274 274 274 274 273 272 271 270 269 270
282 284 285 285 286 286 286 286 286 286 287 288 289 290 290 290 290 289 289 289 288 287 287 287 287 287 287 286 286 285 284 284 284 282 281 280 279 280 280 280 281 282 283 284 283 281 280 280 280 280 279 279 278 278 278 277 277 276 276 275 275 274 274 275 275 275 275 274 274 274 274 273 273 273 273 273 273 274 274 273 272 271 270 269 269
280 282 283 283 284 285 285 285 284 284 285 286 286 287 288 288 288 288 288 288 288 287 286 285 285 285 285 285 284 284 283 282 281 281 280 279 279 279 279 280 281 281 282 282 281 280 280 280 279 279 279 278 278 277 277 277 276 276 275 275 275 274 274 274 274 274 274 274 274 274 273 273 273 273 273 272 272 273 273 273 272 270 269 269 269
278 280 282 281 281 282 283 283 283 283 284 284 285 286 286 287 288 288 287 286 286 285 285 283 282 282 283 283 283 282 282 281 281 280 279 278 278 278 279 279 280 280 280 280 279 279 279 279 279 278 278 277 277 277 277 276 276 275 275 275 275 274 274 274 274 274 274 274 274 273 273 272 272 272 272 272 272 272 272 272 271 270 269 269 269
276 277 279 279 279 279 280 281 282 282 283 284 284 284 285 285 286 286 286 285 284 283 283 282 281 280 280 280 280 280 280 280 280 279 278 278 278 278 278 279 279 278 279 279 279 279 279 279 278 277 277 277 277 276 276 276 275 275 275 275 275 274 274 274 274 274 274 274 273 273 272 272 272 272 272 272 272 272 272 271 270 269 269 269 269
274 274 275 276 277 278 279 280 281 282 283 283 284 284 284 284 284 285 285 284 284 283 283 282 281 280 279 278 278 279 279 279 279 278 278 278 278 278 278 278 277 276 277 278 279 279 278 278 277 277 277 276 276 276 275 275 275 275 275 274 274 274 274 274 274 274 273 273 273 272 272 272 271 271 271 271 271 271 271 270 269 268 268 269 269
272 273 274 275 276 276 278 280 280 281 282 283 283 284 284 283 283 283 283 283 283 282 282 282 281 280 279 278 278 278 278 278 278 278 278 278 278 278 278 277 277 277 278 279 278 278 277 277 277 277 276 276 275 275 275 275 274 274 274 274 274 274 274 273 273 273 273 273 272 272 271 271 271 271 271 271 270 270 269 269 268 268 268 268 268
270 271 273 274 275 275 277 278 280 281 282 282 282 283 283 282 282 282 282 282 281 281 280 280 280 279 278 277 277 277 277 278 278 278 278 278 278 278 278 278 279 279 280 279 278 277 277 277 276 276 276 275 275 275 274 274 274 274 274 274 274 274 273 273 273 273 272 272 272 271 271 271 271 270 270 270 270 269 268 268 268 268 268 268 268
269 270 271 273 274 275 276 278 278 280 280 281 281 282 282 281 281 280 280 280 280 279 279 279 279 278 278 277 276 277 277 278 278 278 278 278 278 278 278 278 279 280 280 278 278 277 277 276 276 276 275 275 275 274 274 274 274 274 274 274 274 273 273 273 273 272 272 271 271 271 271 271 270 270 269 269 269 268 268 268 268 268 268 268 268
269 269 271 272 274 275 277 278 279 279 280 280 281 281 281 280 280 279 279 279 278 278 278 278 278 278 278 277 276 277 277 278 278 278 278 278 278 277 278 278 279 279 278 278 277 277 276 276 275 275 274 274 274 274 274 274 274 274 274 273 273 273 273 273 272 272 271 271 271 271 270 270 270 270 269 268 268 268 268 268 268 268 268 268 268
268 269 271 272 273 275 277 278 278 279 280 280 281 280 280 280 279 278 278 278 277 277 277 278 278 278 277 277 277 277 277 278 278 278 278 278 278 277 278 278 278 278 278 277 277 276 275 275 275 274 274 274 274 274 274 273 273 273 273 273 273 273 273 272 272 271 271 271 271 271 270 270 270 270 269 268 268 268 268 268 268 268 268 268 268
268 269 270 271 272 273 275 276 277 278 279 280 280 280 280 280 279 278 278 277 277 277 277 277 277 277 277 277 277 277 277 278 278 278 278 278 277 278 278 278 277 277 277 276 276 275 275 274 274 274 274 273 273 273 273 273 273 273 273 273 273 273 272 272 271 271 271 271 271 270 270 270 269 269 268 268 268 268 268 268 268 268 268 268 268
269 270 270 271 272 273 274 275 276 276 278 279 280 280 280 279 278 277 277 277 276 277 277 276 277 277 276 277 277 277 278 278 278 278 277 277 277 277 277 276 276 276 275 275 275 275 274 274 273 273 273 273 273 273 273 273 273 273 273 273 273 272 272 272 271 271 271 271 270 270 270 269 269 268 268 268 268 268 268 268 268 268 268 268 268
269 270 271 272 273 273 274 274 275 276 277 278 279 280 279 278 277 277 276 276 276 276 276 276 276 276 276 277 277 277 278 278 277 277 277 277 277 277 276 275 275 274 274 274 274 274 273 273 273 273 273 273 273 273 273 273 273 273 273 273 272 272 272 272 271 271 271 271 270 270 269 269 269 269 269 268 268 268 268 268 268 268 268 268 267
270 270 271 272 273 274 274 274 275 276 277 278 278 279 278 277 276 276 276 276 276 276 276 276 276 276 276 277 277 277 277 277 277 277 277 277 276 276 275 274 274 273 273 273 273 273 273 273 273 272 272 273 273 273 272 273 273 272 272 272 272 272 272 271 271 271 271 270 270 269 269 269 269 269 269 268 268 268 268 268 268 268 268 268 267
270 270 271 272 272 273 273 274 274 276 277 277 277 277 276 276 276 275 275 275 275 275 275 275 275 276 276 276 277 277 277 277 276 276 276 276 276 275 274 274 273 273 273 273 273 273 273 272 272 272 272 272 272 272 272 272 272 272 272 272 272 272 271 271 271 271 270 270 269 269 268 269 269 269 268 268 268 268 268 268 268 268 267 267 267
270 271 271 272 273 273 273 274 275 276 276 276 276 276 275 275 275 275 275 275 275 275 275 275 275 275 275 276 276 276 276 276 276 276 275 275 274 274 273 273 273 273 273 273 272 272 272 272 272 272 272 272 272 272 272 272 272 272 272 272 272 271 271 271 271 271 270 269 269 268 268 268 268 268 268 268 268 268 268 267 268 268 267 267 267
271 272 272 273 273 273 274 274 275 275 275 275 275 274 274 274 274 274 274 274 274 274 274 274 274 275 275 275 275 275 275 275 275 275 274 274 273 273 273 273 273 273 273 272 272 272 272 272 272 272 272 272 272 272 272 272 272 272 271 271 271 271 271 271 270 270 270 269 268 268 268 268 268 268 268 268 268 268 268 267 268 268 267 267 267
271 272 272 273 273 273 274 274 274 274 274 274 273 273 273 273 273 274 274 274 274 274 274 274 274 275 275 274 274 274 274 274 274 273 273 273 273 273 273 273 273 273 272 272 272 272 272 272 272 272 272 272 272 271 271 271 271 271 271 271 271 271 271 270 270 270 270 269 268 268 268 268 268 268 268 267 268 268 268 267 268 267 267 267 267
271 272 272 272 272 273 273 273 273 273 273 273 273 273 273 273 273 273 273 273 273 273 274 274 274 274 274 273 273 274 274 274 273 273 272 272 272 273 273 273 273 272 272 272 272 272 272 272 272 272 272 272 272 271 271 271 271 271 271 271 271 271 270 270 270 270 269 269 268 268 268 268 268 268 267 267 268 268 267 267 268 267 267 267 267
271 271 271 272 272 272 272 272 272 272 272 272 272 272 272 272 272 272 272 272 273 273 273 274 274 273 273 273 273 274 273 273 272 272 272 272 272 272 272 272 272 272 272 272 271 271 271 272 272 272 272 272 271 271 271 271 271 271 271 271 271 271 270 270 270 270 269 269 268 268 267 268 268 267 267 267 268 268 267 267 268 267 267 267 267
270 271 271 271 271 271 271 272 272 272 272 272 272 272 272 272 272 272 272 272 273 273 273 274 273 273 273 274 274 273 273 272 272 272 272 272 272 272 272 272 272 272 271 271 271 271 271 271 271 271 271 271 271 271 271 271 271 271 271 271 271 271 270 270 270 270 269 268 268 267 267 268 267 267 267 268 268 267 267 268 268 267 267 267 266
Wind_Speed
28 33 37 40 42 44 46 49 51 51 52 52 52 51 50 50 49 48 49 49 48 48 48 47 46 45 44 45 47 48 50 50 50 50 49 48 46 45 43 42 40 38 36 34 32 31 30 29 28 28 28 27 26 25 23 22 22 21 20 20 19 18 20 22 28 33 31 28 30 33 35 38 38 36 37 39 39 40 40 40 39 40 40 40 41
30 34 40 45 47 46 45 47 51 54 55 55 55 54 53 51 50 50 51 50 49 49 49 48 47 45 45 45 45 47 48 50 50 50 50 49 48 46 45 43 41 39 37 35 33 32 31 29 29 29 28 28 26 25 24 22 22 21 20 20 19 18 20 23 26 32 34 31 30 33 36 39 40 39 39 41 41 40 40 40 39 39 39 40 41
33 37 42 47 51 51 48 46 49 53 55 57 57 55 54 52 52 52 52 52 51 51 50 49 48 47 45 45 45 46 47 49 50 50 50 50 49 48 46 44 43 41 39 37 35 33 31 30 30 29 29 28 27 25 24 23 23 21 20 20 20 19 20 22 26 30 34 34 32 33 37 40 41 40 40 42 43 42 41 40 40 40 40 40 41
37 40 42 45 49 52 52 48 48 50 52 55 58 58 56 54 54 54 54 54 53 52 51 51 50 49 47 46 45 46 47 49 51 51 51 51 50 49 47 45 44 42 40 38 35 34 32 31 30 30 29 28 27 26 24 24 23 22 20 19 20 20 20 22 25 28 32 36 35 34 36 39 41 41 40 41 42 42 42 42 42 42 42 43 43
40 41 42 42 44 48 51 50 48 48 48 50 54 57 57 56 57 56 56 56 55 54 53 53 52 51 49 48 46 47 48 49 51 51 51 51 51 49 48 46 45 43 41 39 36 34 32 31 30 30 30 29 28 26 25 24 23 22 20 20 19 20 21 22 25 27 31 35 37 36 36 38 40 40 39 40 42 43 42 42 44 45 45 46 46
42 42 42 41 41 43 46 49 49 47 45 47 50 54 57 57 57 58 58 58 58 57 56 56 55 53 51 50 48 48 48 49 50 51 51 51 51 50 48 47 45 43 41 39 37 35 33 31 31 30 30 29 27 26 24 24 23 22 21 20 20 21 22 23 25 28 31 34 36 37 37 37 39 40 39 40 43 45 45 45 45 45 47 48 48
41 43 43 42 42 42 43 47 49 47 46 47 49 52 55 57 57 58 58 59 59 59 58 58 56 55 53 52 50 49 48 49 50 51 51 51 50 51 50 48 46 44 42 39 37 35 33 31 31 30 30 29 27 25 25 24 24 22 21 21 21 22 23 24 25 28 30 33 34 36 37 37 38 39 40 40 41 44 46 48 49 48 47 47 48
38 43 46 46 45 44 43 44 47 48 47 47 49 51 53 55 56 56 58 58 59 59 59 58 57 55 54 53 52 51 50 50 51 51 52 51 51 52 51 50 48 45 43 40 38 36 34 32 31 30 30 29 27 26 25 25 24 22 21 21 22 23 23 23 25 27 29 32 33 35 36 37 37 39 40 40 41 41 42 45 49 50 49 48 46
37 41 46 48 47 46 44 43 45 47 48 48 49 51 52 53 55 55 57 57 57 57 57 57 56 56 55 54 53 52 51 51 51 51 52 52 52 53 52 50 48 46 44 41 39 37 34 32 31 31 30 29 27 26 25 24 24 22 21 22 23 23 23 24 25 27 29 31 33 34 35 36 37 39 40 40 39 39 40 43 47 49 50 52 49
40 40 42 45 45 45 44 43 44 46 47 47 48 50 51 53 54 55 56 55 55 55 55 56 56 56 56 55 54 54 53 52 52 51 51 51 52 53 52 50 48 46 44 42 39 37 34 33 32 31 30 29 27 25 25 24 23 22 22 24 24 23 23 24 25 27 29 31 32 32 34 36 36 37 39 40 38 38 39 40 44 47 49 53 53
41 42 42 41 41 42 42 42 43 45 46 46 46 49 51 53 54 54 54 54 54 54 54 55 56 55 55 55 54 55 54 53 52 51 51 52 52 52 52 51 49 47 44 42 39 37 35 33 32 31 31 29 26 25 25 24 23 23 24 24 23 23 23 24 26 27 29 30 31 31 33 35 36 36 37 38 38 38 38 38 41 44 43 45 50
38 41 41 39 39 39 40 41 42 43 45 45 46 48 50 53 54 54 54 53 53 53 54 55 55 54 54 55 55 55 54 54 53 52 52 53 52 52 52 50 49 47 45 42 39 36 35 33 33 32 30 28 26 25 25 24 24 24 23 22 21 21 22 23 25 26 28 29 30 30 31 33 35 35 35 35 37 38 39 37 37 38 40 43 47
32 34 34 34 35 36 37 38 40 41 43 45 46 47 49 52 53 53 52 52 52 53 54 54 54 54 54 54 55 55 54 54 53 52 53 53 52 52 51 50 49 47 44 41 39 37 35 34 33 32 29 27 26 26 25 25 23 22 21 20 20 21 21 22 23 25 26 27 28 29 29 30 32 33 33 33 35 37 39 39 36 37 42 45 47
31 28 27 27 29 32 33 35 37 39 42 44 45 47 48 50 51 51 51 51 52 53 53 53 53 53 53 54 54 54 54 54 53 52 52 53 53 52 51 50 48 45 42 40 38 37 36 35 34 31 29 27 26 26 25 23 21 20 19 20 21 21 21 22 23 24 24 24 27 28 27 28 31 33 33 32 32 35 38 40 40 40 44 48 51
35 33 29 26 25 26 29 31 32 35 38 41 43 45 47 48 49 50 50 51 52 52 52 53 53 52 53 53 53 53 54 53 52 52 52 53 53 52 51 49 47 44 42 40 38 37 36 35 33 31 28 26 26 25 24 21 20 19 19 20 21 21 21 22 23 23 23 24 25 27 27 28 30 31 32 31 31 33 35 39 42 44 49 53 55
35 35 33 31 28 25 25 26 28 31 33 37 40 43 45 47 48 49 49 50 50 51 52 52 51 51 51 52 52 53 54 53 52 51 52 53 53 52 51 49 47 45 43 41 39 38 37 35 33 30 27 26 26 24 22 20 19 19 20 21 21 21 21 22 22 22 22 22 23 24 26 27 28 29 30 30 30 32 36 41 44 46 50 54 55
34 34 33 32 31 30 27 25 24 26 29 33 37 40 43 45 47 48 48 49 49 50 51 50 50 50 51 51 52 52 53 52 51 51 52 54 54 53 51 49 47 45 43 41 40 38 37 35 33 30 27 26 25 23 20 19 19 20 21 21 21 21 22 21 21 20 20 21 22 23 25 26 27 28 29 29 30 33 38 43 44 44 48 51 54
35 34 33 32 31 31 30 28 25 23 24 29 32 36 39 42 45 46 46 48 48 48 49 49 49 50 50 51 50 51 52 51 51 52 53 53 53 53 51 50 48 46 43 42 40 38 37 35 32 29 28 27 25 21 19 19 20 21 21 21 21 22 22 21 20 20 21 22 22 24 25 25 26 28 29 30 31 32 37 41 43 43 45 48 49
35 35 34 32 30 29 29 29 27 24 23 23 26 31 35 39 42 43 44 45 46 46 47 48 49 49 49 50 49 50 51 50 50 52 52 52 53 53 51 50 49 46 44 43 41 39 37 35 32 30 29 26 23 20 19 19 21 21 21 21 22 22 20 19 20 21 22 22 23 24 24 25 26 28 29 30 31 31 34 38 40 41 42 44 44
34 35 34 33 31 29 27 27 27 27 25 23 23 25 30 34 38 40 42 43 44 45 45 46 47 48 48 49 49 49 50 49 50 51 51 51 53 53 51 50 49 48 45 43 41 39 37 35 33 31 29 25 22 20 20 21 22 22 22 22 22 21 19 19 20 22 22 23 23 24 25 25 27 28 28 30 30 31 33 35 36 37 37 39 40
36 34 34 33 32 30 29 28 27 27 26 25 23 23 26 30 34 37 39 41 42 43 44 45 46 46 47 48 48 49 49 49 49 50 50 50 52 53 51 51 50 48 44 43 41 39 37 35 33 31 28 25 22 21 21 21 22 22 22 22 21 18 18 20 21 21 21 22 23 24 25 26 27 28 28 29 30 31 32 33 34 34 33 33 36
39 37 35 34 33 32 31 30 29 28 27 25 24 23 24 27 31 34 36 38 40 41 43 44 44 45 46 46 47 48 49 48 49 49 48 48 50 51 51 50 48 46 44 43 41 39 37 35 32 29 27 24 22 22 22 22 22 22 22 21 19 18 19 21 21 20 20 22 23 25 25 26 27 28 27 29 30 30 32 33 33 32 31 31 34
42 41 38 35 33 33 32 32 31 30 29 27 26 25 24 25 27 30 33 36 38 39 41 42 43 45 45 46 47 48 48 48 47 47 46 45 46 48 48 46 45 44 43 41 40 38 36 33 30 27 25 23 22 22 21 21 22 21 20 18 18 19 20 20 19 19 21 22 23 25 25 25 26 27 28 29 30 31 32 33 32 31 32 34 34
44 43 41 38 35 34 33 33 34 33 32 30 28 27 26 26 26 27 30 34 37 39 40 41 42 44 45 46 46 47 47 48 46 45 44 42 40 42 45 44 43 43 42 40 38 35 33 31 28 26 24 22 21 21 21 21 21 19 18 18 19 19 19 18 18 20 21 22 23 24 24 24 25 27 29 30 31 32 33 33 32 31 32 35 37
44 44 43 41 38 36 34 34 34 34 34 34 32 30 29 28 28 28 29 32 36 37 39 41 42 43 45 45 47 47 47 47 45 44 45 41 37 38 41 41 41 41 40 38 36 33 31 29 25 23 22 22 22 21 21 20 19 18 18 18 18 17 17 18 19 20 22 22 23 24 23 23 25 27 29 31 32 33 34 33 33 33 34 36 39
45 45 44 43 40 39 37 36 35 35 35 36 36 34 33 31 31 31 31 32 35 36 38 40 41 43 45 45 46 47 47 46 45 45 46 44 38 36 38 38 39 40 38 36 34 32 30 26 23 22 23 22 22 20 19 19 18 18 17 16 16 16 17 18 19 21 22 22 23 24 24 24 26 27 28 31 33 33 34 35 36 36 36 38 41
47 46 46 44 43 42 40 39 37 36 36 37 37 38 37 36 35 34 34 34 35 36 38 40 41 44 46 46 47 47 46 46 46 46 48 47 42 39 39 37 38 39 38 35 33 31 28 26 25 24 23 21 20 20 19 19 18 17 16 15 15 15 16 18 20 21 22 22 23 24 24 25 27 27 29 31 33 34 34 34 37 38 38 39 42
49 49 48 46 45 44 44 42 40 38 38 38 39 40 40 40 39 39 38 37 37 37 39 40 41 43 44 45 46 47 47 47 48 49 52 53 50 48 45 42 41 42 40 35 32 31 30 29 26 24 22 22 22 21 20 18 17 16 15 14 14 15 17 19 20 21 22 22 23 24 25 26 27 28 30 33 34 35 34 34 36 38 39 39 43
51 51 50 48 46 46 46 46 44 42 41 40 40 41 41 42 42 42 41 40 40 39 39 40 41 41 42 43 45 47 47 48 49 50 52 54 54 53 51 47 45 43 39 35 34 34 32 29 25 24 24 24 23 21 20 18 17 15 14 13 14 15 17 19 20 20 20 21 23 24 25 27 28 29 31 34 35 35 34 34 35 37 39 41 44
52 53 51 49 48 46 46 47 47 45 44 43 42 41 41 42 42 42 42 42 41 40 40 41 40 41 41 42 43 44 44 44 45 47 51 53 54 53 51 48 44 41 38 36 34 32 29 27 26 26 26 25 23 22 20 19 16 14 12 13 14 16 18 19 19 20 20 20 22 24 25 27 28 30 32 34 36 36 35 34 35 37 39 42 45
53 53 52 50 47 45 45 45 45 45 45 44 43 42 41 41 42 42 42 42 42 41 41 41 42 42 42 42 42 41 41 41 41 44 50 52 51 51 51 48 43 40 39 37 34 30 28 28 28 27 26 25 24 22 20 17 15 12 12 13 15 17 18 17 18 19 19 20 22 23 24 27 29 31 33 34 36 37 36 36 37 38 40 42 45
50 51 51 49 46 44 44 44 43 43 42 42 43 43 42 42 42 42 42 42 43 43 42 42 43 44 43 42 41 40 40 39 39 41 47 50 49 49 50 47 42 40 38 35 32 30 30 29 28 28 27 26 24 22 19 16 13 12 13 14 15 16 17 16 17 18 18 20 22 23 24 26 29 31 33 34 35 37 38 38 39 40 42 45 47
45 46 47 45 41 40 40 40 41 41 40 40 41 42 43 44 43 42 41 41 41 42 41 41 41 42 43 42 41 40 38 37 36 39 44 47 46 46 47 45 41 40 38 34 31 30 30 30 29 28 27 26 24 21 17 14 13 14 14 14 14 14 15 15 16 16 17 19 22 23 24 26 29 31 33 34 34 36 37 39 41 42 43 47 50
39 39 41 41 39 38 38 38 39 39 39 39 40 41 43 44 43 42 41 41 39 39 39 39 38 38 38 37 37 38 37 35 35 37 42 45 44 44 44 42 38 37 36 33 31 31 31 31 30 29 27 24 22 18 15 14 14 14 14 14 13 12 13 14 15 16 17 19 21 22 24 26 28 31 34 34 34 36 37 39 42 43 45 48 52
35 38 41 41 39 38 39 39 39 40 40 39 40 41 42 43 42 42 42 41 40 39 38 36 35 34 33 32 33 35 35 34 34 36 41 45 45 43 42 40 37 35 34 32 31 31 31 31 30 27 24 22 19 16 15 14 14 13 13 12 12 11 12 13 14 16 17 19 20 22 24 26 28 30 32 34 34 36 38 40 42 44 46 49 53
40 43 45 44 41 39 38 38 38 39 39 39 39 40 41 42 42 42 41 40 39 38 36 35 32 29 28 30 31 32 32 33 34 37 41 45 45 44 43 42 39 38 36 35 33 33 32 30 28 25 22 19 17 15 14 14 13 13 12 11 11 11 11 12 14 16 18 19 21 23 24 27 29 30 31 33 34 35 38 41 43 45 46 49 53
42 43 44 43 41 40 39 38 37 38 38 37 37 38 40 41 41 41 40 39 38 36 34 33 31 28 28 30 30 30 31 32 34 38 41 43 44 44 44 44 43 42 40 38 37 35 32 30 27 24 21 18 16 15 14 14 13 12 11 10 10 11 11 12 14 16 18 19 21 23 24 26 28 29 30 33 35 36 39 41 43 45 49 51 54
41 42 42 41 38 37 39 39 38 37 38 38 37 38 39 39 39 39 39 37 36 35 34 33 32 33 34 34 31 30 31 33 36 38 40 41 43 45 46 46 45 43 39 37 36 34 31 28 25 22 20 18 16 15 14 13 12 11 11 10 10 10 11 13 15 16 18 20 21 23 25 27 28 29 30 32 35 37 40 41 42 46 51 54 55
42 40 38 35 33 33 35 35 36 37 38 38 37 37 37 37 37 37 36 35 34 34 34 34 34 36 37 35 33 33 36 38 41 42 43 45 48 49 48 45 42 39 36 35 34 32 29 27 24 21 19 17 16 14 14 13 12 11 11 10 10 10 11 13 15 16 18 20 21 23 25 27 28 30 30 32 35 38 39 41 44 47 52 55 56
41 40 38 34 32 32 32 31 33 35 36 36 36 35 35 36 36 35 35 34 34 34 35 35 36 37 38 36 36 39 42 44 45 47 49 50 50 48 44 40 38 36 36 35 34 31 28 25 22 20 18 16 15 14 13 12 12 11 11 10 10 11 12 14 16 17 18 20 22 24 26 27 29 31 32 33 35 37 38 41 47 50 51 54 56
42 43 44 41 39 38 37 35 35 35 33 33 33 33 33 34 34 34 34 34 34 35 36 36 37 37 37 36 37 42 45 47 49 51 52 51 49 46 42 39 37 37 36 35 32 29 26 23 20 18 17 15 14 13 13 12 11 11 11 11 11 12 13 14 16 18 19 21 22 24 26 28 29 31 32 34 35 36 38 43 48 51 52 54 56
41 42 43 42 40 39 39 38 38 36 33 31 30 31 32 33 33 34 34 35 35 36 36 36 36 37 36 36 40 45 48 49 51 52 51 49 47 45 41 39 37 36 34 31 29 26 23 21 18 17 15 14 13 12 12 12 12 11 11 12 12 13 14 15 16 18 20 21 23 25 26 29 30 31 33 35 36 37 41 46 49 50 52 55 56
36 37 37 37 37 36 35 34 35 35 34 33 31 31 32 32 33 34 34 35 36 37 37 37 37 37 37 39 44 49 51 51 52 51 50 48 46 42 39 37 35 32 30 28 25 23 21 19 17 15 14 13 13 12 12 12 12 12 12 13 13 14 15 16 17 19 20 22 24 25 27 29 30 32 34 35 36 40 45 48 49 50 53 56 57
30 31 31 31 32 32 31 31 32 34 34 33 33 32 32 32 32 33 34 35 36 37 38 39 39 40 40 42 46 51 52 51 50 50 48 45 42 38 35 34 32 30 28 26 24 22 19 17 16 14 13 12 12 12 12 12 12 12 13 13 14 15 16 17 18 20 22 23 25 26 28 29 31 34 36 36 38 43 47 47 48 51 54 56 56
28 29 29 29 28 27 27 28 30 33 33 32 32 31 31 31 32 33 35 36 37 38 39 40 41 43 44 44 47 51 51 50 48 47 44 41 38 35 33 32 30 29 27 24 22 20 18 16 14 13 12 12 11 11 11 12 12 12 13 14 15 15 17 18 20 21 22 24 25 26 28 30 32 34 36 37 40 44 46 45 47 51 54 55 56
23 23 23 23 22 23 24 26 28 30 31 31 30 30 30 31 32 34 35 37 39 40 40 41 43 45 45 45 47 50 50 47 45 42 39 36 35 33 32 31 29 27 25 22 20 18 16 14 13 12 11 11 11 11 11 11 12 13 14 15 15 16 17 19 20 21 22 24 25 26 27 30 33 34 35 38 42 43 43 44 47 50 53 55 56
17 17 17 17 18 19 21 23 25 27 28 27 28 29 30 31 33 35 36 38 39 40 41 43 45 45 46 46 46 47 46 43 39 37 35 33 33 32 31 29 27 25 23 21 19 17 15 13 12 11 11 10 10 10 11 12 12 13 14 15 16 17 18 19 21 22 23 24 24 25 27 30 32 34 36 40 42 41 41 43 47 50 52 54 55
15 14 13 13 15 17 19 20 22 23 25 26 27 29 30 32 34 35 36 38 39 40 42 44 45 46 45 44 43 43 41 37 34 33 33 32 32 31 29 27 25 23 21 19 17 16 14 13 12 11 10 10 10 10 11 12 12 13 15 15 16 17 18 20 21 22 23 23 24 25 27 29 31 34 38 40 39 38 40 43 47 50 52 54 54
12 10 10 10 12 14 16 18 20 22 23 25 27 28 30 32 33 35 36 37 39 41 43 44 46 46 43 40 39 39 37 34 33 34 33 32 31 30 28 26 24 22 19 18 16 14 13 12 11 10 10 9 9 10 11 12 13 14 15 15 16 17 18 20 21 22 22 23 24 25 27 29 31 35 38 38 36 36 40 43 46 50 52 53 54
8 6 7 8 10 12 14 16 19 20 22 24 26 28 30 31 33 34 36 37 39 41 42 43 44 43 40 37 37 37 35 34 34 34 33 31 30 28 26 24 22 20 18 16 15 13 12 11 10 10 9 9 9 10 11 12 13 14 15 15 16 17 18 19 21 22 22 22 23 25 27 29 33 36 37 35 34 36 40 43 46 49 51 52 53
4 3 4 6 9 11 13 15 17 19 21 23 25 26 28 30 31 33 35 36 37 39 40 41 40 39 36 36 36 36 34 33 33 32 31 30 28 26 24 22 20 18 16 15 14 13 11 10 10 9 9 9 10 11 12 13 14 15 15 15 16 17 18 20 21 22 22 22 23 24 27 30 34 35 34 33 34 36 40 43 46 48 50 52 52
Wind_Direction
269 271 269 263 257 252 249 247 245 245 244 244 245 245 246 247 247 247 248 248 248 248 248 247 244 241 240 239 239 238 236 234 233 232 231 231 231 231 231 231 232 234 234 236 238 240 244 247 251 254 257 260 263 268 271 270 269 269 271 275 279 285 290 291 294 300 305 308 310 311 311 309 311 315 316 315 315 316 316 317 317 315 313 312 311
278 280 277 269 261 256 254 253 250 249 247 246 246 245 246 246 247 247 248 248 248 248 248 248 246 243 240 239 239 238 237 236 234 233 232 231 231 230 230 231 232 233 233 235 237 240 243 246 249 253 256 259 262 266 268 267 266 267 269 274 279 283 287 290 293 298 303 308 310 311 310 309 311 315 317 316 315 316 315 316 316 315 313 313 311
282 281 278 274 266 258 254 254 254 253 252 250 249 248 247 247 247 248 248 248 248 248 248 248 247 244 240 239 238 238 237 236 235 234 233 233 232 231 231 231 232 233 233 235 237 239 242 244 248 252 255 258 261 264 265 263 264 266 268 272 277 281 284 288 292 297 302 306 308 309 310 309 310 313 316 316 315 316 317 317 317 315 314 313 312
284 281 278 277 271 262 255 254 256 256 256 256 254 251 250 248 248 248 248 248 248 248 248 248 246 244 241 238 237 236 236 235 234 234 234 234 233 233 232 232 233 233 234 236 237 239 241 244 248 252 255 257 260 262 262 262 262 263 266 269 274 279 283 287 293 297 301 304 306 308 308 308 309 312 315 313 313 315 319 320 319 317 316 316 315
286 285 282 278 273 265 259 256 257 259 260 262 260 256 252 250 249 249 249 249 248 248 248 247 245 244 242 239 237 235 235 235 234 234 234 233 233 233 233 233 233 234 234 235 236 237 239 243 247 251 254 257 258 260 260 260 261 262 265 268 273 278 284 289 294 297 300 302 304 305 306 307 308 311 313 313 314 318 321 321 320 319 319 319 319
291 292 288 283 276 270 263 258 258 261 266 268 265 259 254 251 250 250 250 249 249 247 246 246 245 245 244 242 239 236 235 234 234 234 233 233 232 232 232 232 233 233 234 234 234 236 238 241 246 250 254 256 257 258 258 259 260 262 264 269 274 279 285 290 294 296 298 299 301 303 305 306 307 310 314 318 320 322 322 321 321 320 320 320 319
299 299 294 289 283 278 274 267 261 263 269 271 267 260 254 252 251 251 251 250 249 248 246 246 246 246 245 244 241 238 235 234 234 233 233 232 232 231 231 230 231 231 232 233 233 235 237 240 245 249 253 255 255 256 258 259 261 263 266 271 276 280 284 288 291 293 295 296 299 301 303 305 309 314 317 321 324 324 324 323 322 321 321 320 319
300 298 296 293 289 287 287 280 270 266 268 269 266 261 255 252 252 252 251 250 249 249 248 247 246 245 244 243 242 239 236 234 233 232 232 231 231 231 230 230 230 230 231 232 233 234 236 239 244 248 251 253 254 255 258 259 260 263 267 271 274 277 281 285 288 291 293 296 298 300 303 308 313 315 318 323 326 325 325 324 320 319 320 318 317
296 294 293 292 292 293 291 285 276 268 266 266 266 262 257 253 252 252 251 251 250 250 249 247 246 244 242 241 239 238 236 234 233 232 232 231 230 230 229 229 230 230 231 231 232 234 236 239 243 246 249 251 252 254 255 257 259 263 267 270 273 276 281 284 288 292 294 296 298 302 306 310 313 315 319 323 323 322 322 321 318 317 318 316 316
290 288 286 286 290 293 291 285 278 271 268 268 266 263 258 252 250 251 251 251 250 248 247 246 244 243 242 240 238 237 236 235 234 233 232 232 232 231 229 229 229 230 231 231 232 233 236 239 241 244 246 248 249 251 252 255 258 262 264 266 271 276 281 287 290 294 296 297 300 305 307 309 313 317 319 319 319 319 320 319 317 317 319 317 316
288 287 284 284 288 292 290 287 282 276 273 270 267 264 259 253 250 250 250 250 249 248 247 245 243 242 241 240 239 238 237 235 234 233 232 233 233 232 231 230 230 230 231 231 232 234 235 238 240 241 243 245 246 248 250 254 257 259 261 266 274 281 286 291 294 297 297 297 301 304 306 309 313 315 316 317 317 318 318 317 317 317 317 313 311
293 288 287 290 292 291 290 288 285 281 277 273 269 265 259 253 250 249 249 250 249 248 246 245 243 242 240 239 239 238 237 236 234 232 231 232 232 232 231 231 230 230 230 230 232 233 235 237 238 240 242 243 244 245 248 251 254 258 265 271 278 283 286 290 293 293 293 295 298 301 304 307 309 311 315 316 317 317 316 315 314 313 311 308 306
310 296 293 296 297 296 293 290 288 285 281 277 272 265 259 254 251 250 250 250 250 248 247 245 243 241 240 239 238 237 236 235 233 232 231 232 231 231 230 230 231 231 230 231 232 233 234 236 237 238 238 239 240 243 247 250 254 260 267 272 276 278 281 285 286 285 288 292 295 297 301 303 305 310 315 316 316 316 314 313 311 308 306 305 301
340 326 313 307 304 301 298 294 291 288 282 277 272 266 261 256 253 251 251 250 250 248 246 245 242 241 239 238 237 236 235 234 232 231 232 232 231 230 229 229 229 229 229 230 232 233 233 234 235 235 235 237 240 243 246 250 254 259 264 268 272 275 278 281 281 282 287 290 291 295 301 305 307 312 316 315 312 312 311 309 307 303 299 297 296
351 350 343 335 324 312 303 298 293 288 282 276 271 267 262 258 254 252 252 251 251 249 246 244 242 240 239 237 236 235 235 233 231 231 231 231 230 229 228 228 227 227 227 228 230 231 231 232 233 233 233 236 239 243 246 250 254 259 264 267 271 275 279 281 282 286 289 290 293 300 306 308 309 310 311 310 306 304 302 299 297 296 295 296 297
345 349 351 352 349 338 323 308 297 289 282 276 271 267 262 258 255 254 252 251 249 247 245 244 242 240 239 236 235 234 234 232 230 230 230 230 230 228 227 226 225 225 226 227 227 228 229 230 231 231 232 235 238 243 248 252 256 260 264 268 273 277 279 281 284 288 291 293 297 300 301 301 302 300 300 300 298 296 295 295 296 299 299 300 300
339 342 345 349 351 350 345 332 316 300 286 277 272 268 264 260 257 254 252 250 248 246 245 243 242 241 239 237 236 234 234 232 230 229 230 229 230 228 225 224 224 224 225 226 226 227 228 229 230 230 231 234 238 243 248 253 256 260 265 270 273 276 278 281 284 287 289 291 293 294 295 297 299 299 300 300 300 299 298 299 302 303 302 300 300
331 334 337 340 344 347 348 343 335 319 299 286 278 272 268 263 259 256 253 251 249 248 246 244 243 242 240 239 238 236 235 232 229 229 229 229 230 228 225 223 223 223 224 224 225 226 227 229 229 229 231 234 238 243 246 250 256 261 266 270 271 274 278 282 285 286 286 289 292 293 297 301 303 305 306 305 305 304 301 301 303 302 299 298 298
325 326 328 332 335 339 342 342 339 333 321 307 292 281 274 267 262 258 254 252 250 248 246 245 244 243 241 240 239 237 236 233 230 229 228 228 230 228 224 222 222 222 223 223 224 225 226 227 227 228 231 235 238 241 242 247 254 259 263 266 267 271 277 282 284 285 287 291 294 298 302 306 307 307 307 306 304 303 301 300 300 298 297 297 299
322 320 320 323 326 328 332 334 335 335 333 325 309 292 279 271 264 259 255 252 250 248 246 245 244 244 242 241 239 238 237 234 231 229 228 228 230 228 224 223 223 223 223 224 224 224 224 225 226 229 232 234 235 237 239 245 252 256 259 262 266 272 276 277 278 282 289 294 299 302 305 308 308 307 306 305 304 303 301 299 297 298 298 299 300
320 317 315 317 319 320 322 324 325 328 329 326 318 303 287 274 267 262 258 253 250 248 246 244 244 243 242 241 240 238 237 234 232 230 227 226 229 228 225 223 224 224 223 224 225 224 224 225 226 229 232 232 231 233 236 242 249 253 256 260 265 271 272 273 277 284 291 297 299 301 304 306 307 306 306 306 304 303 303 302 301 302 301 297 296
319 316 313 313 314 314 315 316 315 316 317 318 315 308 296 282 271 265 259 255 251 249 247 245 244 243 241 241 239 237 236 234 231 230 226 223 225 228 226 223 224 224 224 224 224 223 224 225 227 230 231 229 228 231 235 239 243 248 254 259 262 265 266 272 281 288 292 295 296 299 303 304 305 305 305 305 306 307 308 308 306 305 300 294 291
316 314 311 310 309 309 310 309 308 307 307 309 307 304 298 288 277 269 262 257 253 249 248 246 244 242 241 240 239 237 236 233 230 227 223 218 220 225 226 223 223 224 224 225 225 223 224 225 226 227 226 224 225 229 232 235 239 244 250 253 255 259 265 273 283 287 288 291 294 297 301 303 303 305 307 309 311 313 312 310 308 306 303 299 297
312 311 310 308 306 304 303 303 301 300 301 301 299 296 292 287 280 273 266 259 254 250 248 246 244 243 242 240 239 237 235 233 228 223 219 213 213 222 225 222 221 222 222 223 224 224 225 226 225 223 221 219 222 226 230 233 237 240 244 247 252 260 269 276 281 283 286 289 292 294 298 302 303 307 311 313 314 314 313 311 309 308 307 306 305
308 307 307 306 305 301 298 295 295 295 295 295 293 290 287 282 277 273 267 260 255 251 249 247 245 244 243 242 241 239 236 233 228 222 217 211 209 218 225 222 220 221 220 220 221 222 224 225 222 217 216 218 223 228 230 232 234 235 239 246 255 263 271 276 279 282 285 288 290 293 298 303 306 311 314 315 314 314 313 312 311 313 314 313 311
305 304 302 302 302 298 294 290 289 289 290 290 288 286 283 279 274 270 266 261 256 252 250 248 246 245 243 243 242 240 237 233 227 220 215 209 206 214 223 222 220 220 219 217 218 218 218 219 216 214 218 223 227 229 228 227 231 235 240 248 257 264 270 275 279 282 284 286 289 295 302 307 310 313 315 314 314 315 315 315 316 317 319 318 314
302 300 298 297 296 293 290 287 285 285 285 284 284 282 279 276 271 266 263 260 257 254 251 248 246 244 243 242 241 239 237 233 227 220 214 208 203 210 218 218 216 217 215 211 212 215 215 216 216 217 221 225 224 223 222 224 229 235 241 248 257 264 270 275 277 280 283 288 294 301 307 310 312 314 316 315 315 316 318 319 319 320 322 319 313
299 297 294 292 291 288 286 283 281 281 281 280 279 278 276 274 271 268 266 263 260 258 254 251 250 248 245 242 239 236 234 232 228 222 217 211 205 207 214 213 211 213 213 209 210 215 217 217 216 216 218 220 219 218 220 222 225 231 238 248 257 264 269 272 275 280 286 293 300 305 309 311 314 317 318 316 316 318 320 321 321 321 322 320 313
297 294 292 290 288 285 283 280 277 277 278 278 277 276 275 274 273 271 269 266 262 260 258 256 254 251 247 244 241 237 235 235 231 225 220 214 208 207 211 211 209 211 213 212 213 216 215 212 211 211 214 215 215 216 217 218 221 227 235 245 255 261 266 270 274 281 289 295 301 306 310 313 316 318 317 317 317 319 321 322 323 323 322 319 313
296 292 290 288 286 283 281 279 277 275 275 276 277 276 274 272 271 269 267 264 261 258 255 254 253 251 248 247 246 245 245 244 238 229 221 215 210 209 211 211 210 211 212 213 215 215 211 208 208 211 213 213 213 214 215 216 220 225 233 245 254 258 264 270 277 284 291 297 303 308 312 316 318 319 319 319 319 320 322 324 325 325 322 317 314
295 291 288 286 284 281 279 278 277 276 275 274 275 275 273 271 268 265 263 261 259 255 252 251 250 249 248 248 247 247 246 244 239 229 220 213 209 208 210 212 213 213 215 215 213 210 208 209 210 210 210 209 210 212 213 215 218 223 234 246 253 258 265 273 280 288 295 301 306 311 316 318 318 319 320 321 320 321 323 327 328 326 322 317 314
293 289 287 285 283 280 277 275 276 277 276 275 273 272 270 268 265 262 259 258 257 255 251 248 246 246 247 246 245 244 242 239 235 228 219 211 207 208 210 212 213 214 216 216 212 209 208 209 210 209 208 207 208 210 211 212 215 222 231 241 249 259 268 275 283 292 300 305 309 314 318 319 320 321 321 322 322 322 325 328 329 327 322 318 315
289 286 284 282 283 283 279 277 277 276 276 276 275 271 267 264 262 260 256 254 253 253 250 248 245 244 245 245 243 241 239 236 233 226 216 209 206 206 208 210 211 213 215 213 209 209 209 209 208 207 206 206 206 207 208 209 215 224 232 239 246 257 268 278 288 296 303 307 312 316 319 320 322 323 322 322 323 324 327 329 328 326 322 318 315
288 284 280 279 282 283 280 278 278 277 277 277 275 272 268 264 260 257 253 248 246 246 246 246 244 242 242 243 242 239 236 232 228 221 211 205 203 204 205 206 208 211 215 214 209 208 209 208 207 205 204 204 205 204 205 211 219 227 236 244 251 260 271 282 293 300 305 310 313 316 319 322 325 325 323 322 324 326 328 329 327 325 321 317 315
283 280 278 277 278 279 278 277 277 276 276 276 275 272 268 264 258 254 250 247 244 242 242 241 240 238 237 236 236 236 233 226 220 212 205 202 200 201 202 201 199 202 209 212 211 210 209 207 205 204 203 203 202 203 207 216 224 231 240 250 260 269 279 289 298 304 308 311 314 317 322 325 326 324 322 322 325 328 329 328 326 322 319 317 316
278 278 278 276 275 274 275 276 277 276 276 276 276 273 268 263 257 252 248 246 242 240 239 237 235 231 229 228 228 229 227 220 212 204 201 200 199 200 201 198 196 201 207 208 206 206 206 204 203 202 201 200 202 206 212 220 228 236 244 255 266 276 286 296 303 307 309 312 316 321 324 324 323 323 323 325 328 329 328 326 324 321 318 317 317
284 283 281 278 276 273 271 271 273 276 276 276 276 272 265 259 254 248 244 241 238 234 231 229 224 213 207 211 215 214 213 210 203 198 198 199 199 201 204 203 204 209 210 204 201 201 201 200 200 199 198 200 204 209 216 224 230 239 248 258 269 280 291 300 305 308 310 313 318 321 322 322 323 325 327 329 330 330 327 324 323 320 318 318 318
288 286 283 282 283 280 274 269 269 271 273 273 272 269 262 256 250 244 239 236 232 228 223 219 214 205 200 201 201 197 195 193 190 190 193 193 194 197 202 205 209 211 207 201 200 200 199 198 198 196 196 202 207 212 220 227 233 241 251 260 272 285 295 301 306 308 309 313 317 319 321 323 325 328 331 332 331 329 326 324 322 319 319 321 321
286 284 283 284 286 284 279 274 271 269 270 270 268 264 258 252 245 239 235 230 225 221 216 212 209 204 201 198 192 186 185 185 185 186 187 188 190 195 200 204 206 206 203 199 198 197 196 195 195 193 196 204 210 215 223 230 236 244 253 263 275 288 296 301 305 307 309 314 318 320 322 325 326 329 334 335 331 328 326 323 321 320 320 322 322
280 278 275 273 270 269 269 271 271 269 268 266 263 259 255 249 243 238 232 225 220 216 212 208 204 201 199 196 189 185 184 185 185 186 186 186 190 195 200 202 201 200 198 197 195 193 192 191 191 194 199 206 213 219 226 233 240 249 259 268 279 290 297 301 304 308 312 316 320 322 323 325 328 331 335 334 330 327 324 321 320 321 322 322 323
280 279 277 274 269 264 261 262 265 268 268 265 262 258 255 250 243 235 228 221 215 211 207 204 201 198 196 194 189 185 185 185 185 186 187 188 192 197 199 198 197 195 194 192 190 189 189 187 190 196 202 209 217 223 230 239 245 253 265 275 283 292 298 301 306 310 314 317 321 322 324 327 331 334 334 333 331 328 323 321 321 323 324 324 324
282 281 280 279 277 272 265 262 262 264 264 262 258 255 252 247 238 229 222 215 211 207 202 199 197 195 192 189 186 185 187 187 187 187 188 191 196 198 196 194 193 192 190 188 186 186 185 185 191 199 204 212 221 227 234 244 252 259 270 279 286 293 300 305 309 313 316 319 322 323 325 329 333 334 333 334 333 328 324 323 324 325 325 325 324
282 280 279 278 276 272 267 262 260 259 257 254 252 250 246 239 230 223 216 210 207 203 198 195 192 188 185 184 185 187 189 189 189 189 192 195 197 196 193 191 189 186 184 183 183 183 184 187 194 201 207 215 224 231 239 248 257 265 273 281 288 296 303 308 312 315 318 320 322 324 326 330 332 332 334 336 334 327 324 325 326 326 326 325 325
283 280 278 276 273 269 264 258 254 253 251 249 247 244 238 230 222 216 210 206 203 198 194 191 187 181 180 183 187 189 190 190 191 193 195 196 195 192 189 187 184 181 181 182 181 182 186 191 196 203 211 218 226 236 244 252 261 270 277 284 292 299 305 311 315 317 320 320 321 324 327 329 331 333 335 337 332 326 324 326 327 326 326 326 325
286 282 278 274 271 267 261 253 249 246 244 240 236 231 226 220 214 209 204 201 196 193 190 188 183 179 180 185 189 191 192 193 194 196 197 195 191 187 184 183 181 180 180 181 181 184 189 194 198 205 214 223 231 240 250 258 268 276 282 289 296 301 307 312 315 317 320 321 321 324 327 329 331 334 336 334 328 324 324 327 327 326 326 326 326
288 282 277 272 268 263 256 248 242 237 234 230 225 219 213 209 205 201 198 195 192 190 187 183 180 180 183 187 190 192 194 195 196 196 195 191 186 183 180 179 179 179 180 181 183 187 191 195 201 209 218 228 237 248 258 267 275 282 287 293 298 302 307 312 314 316 320 321 321 324 327 329 332 336 335 329 324 323 326 327 327 326 327 327 326
295 287 278 271 263 254 245 237 230 226 222 218 213 207 202 198 195 194 193 191 190 187 184 181 180 184 188 190 192 193 194 195 195 193 189 185 181 179 179 178 178 178 180 182 185 189 192 196 202 211 221 232 243 254 264 273 280 286 290 294 299 303 308 311 313 317 320 320 319 322 326 330 334 335 330 324 322 325 328 328 327 327 329 329 328
297 288 276 262 248 236 228 221 215 211 206 202 199 196 194 192 191 190 190 189 187 185 183 183 184 187 190 191 191 191 191 190 189 186 183 181 179 178 177 178 178 180 182 185 188 191 194 199 205 214 224 236 247 258 269 278 285 289 292 296 300 304 308 311 313 317 319 317 317 322 329 334 335 330 323 321 324 328 329 328 328 329 331 331 330
295 281 262 243 226 217 211 205 201 198 195 193 192 190 189 188 188 186 186 185 184 184 185 185 187 189 190 189 187 187 186 185 184 181 180 179 178 177 177 178 179 181 184 187 190 194 197 203 212 221 231 244 257 267 276 284 289 290 293 298 300 303 307 311 314 316 317 315 318 326 333 334 329 323 319 322 327 331 329 328 328 331 332 332 332
295 273 247 224 208 201 198 195 193 191 190 189 188 186 185 185 185 184 184 183 183 183 185 187 188 189 188 185 184 184 184 183 181 179 178 177 176 176 177 178 180 183 186 189 192 197 203 210 220 232 242 255 268 277 283 289 293 294 296 298 300 303 308 310 311 313 316 316 320 329 332 328 322 319 319 324 331 332 330 329 330 332 334 334 333
296 250 217 202 193 190 189 188 187 186 186 186 186 185 184 183 183 183 183 184 185 186 187 188 188 188 186 184 183 183 182 180 178 177 176 176 175 176 177 179 181 185 188 192 196 203 210 219 229 242 254 265 275 283 289 294 296 298 299 300 301 305 308 309 311 315 317 316 320 327 328 323 319 318 321 327 333 333 331 330 332 334 335 335 335